Location: Earls Croome
(52.0667°N, 2.2000°W)
Time: 03:08:09
(UTC+00:00)

SL-16 R/B - Pass Details

Date: 17 November 2019
Orbit: 842 x 846 km, 71.0° (Epoch: 11 December)

Event Time Altitude Azimuth Distance (km) Brightness Sun altitude
Exits shadow 03:10:30 24° 47° (NE) 1,690 4.2 -39.4°
Drops below altitude 10° 03:14:29 10° 91° (E) 2,473 5.2 -38.9°
Sets 03:17:24 0° 105° (ESE) 3,405 6.0 -38.5°
